Time,TemperatureF,DewpointF,PressureIn,WindDirection,WindDirectionDegrees,WindSpeedMPH,WindSpeedGustMPH,Humidity,HourlyPrecipIn,Conditions,Clouds,dailyrainin,SoftwareType,DateUTC
2013-07-27 00:02:00,61.9,59.0,30.01,ESE,106,0.0,2.0,90,0.00,,,0.00,weatherlink.com 1.10,2013-07-27 04:02:00,
2013-07-27 00:17:00,61.5,59.0,30.01,ESE,106,0.0,1.0,92,0.00,,,0.00,weatherlink.com 1.10,2013-07-27 04:17:00,
2013-07-27 00:32:00,60.9,59.0,30.01,ESE,105,1.0,2.0,92,0.00,,,0.00,weatherlink.com 1.10,2013-07-27 04:32:00,
2013-07-27 00:47:00,60.6,59.0,30.01,ESE,105,1.0,2.0,94,0.00,,,0.00,weatherlink.com 1.10,2013-07-27 04:47:00,
2013-07-27 01:02:00,60.4,59.0,30.01,ESE,105,2.0,2.0,94,0.00,,,0.00,weatherlink.com 1.10,2013-07-27 05:02:00,
2013-07-27 01:17:00,60.2,59.0,30.01,ESE,105,0.0,2.0,95,0.00,,,0.00,weatherlink.com 1.10,2013-07-27 05:17:00,
2013-07-27 01:32:00,59.9,59.0,30.01,ESE,105,1.0,2.0,95,0.00,,,0.00,weatherlink.com 1.10,2013-07-27 05:32:00,
2013-07-27 01:47:00,59.7,58.0,30.01,ESE,105,1.0,2.0,95,0.00,,,0.00,weatherlink.com 1.10,2013-07-27 05:47:00,
2013-07-27 02:02:00,59.4,58.0,30.01,East,86,0.0,1.0,96,0.00,,,0.00,weatherlink.com 1.10,2013-07-27 06:02:00,
2013-07-27 02:17:00,59.2,58.0,30.00,East,86,1.0,1.0,96,0.00,,,0.00,weatherlink.com 1.10,2013-07-27 06:17:00,
2013-07-27 02:32:00,59.0,58.0,30.01,East,88,0.0,2.0,96,0.00,,,0.00,weatherlink.com 1.10,2013-07-27 06:32:00,
2013-07-27 02:47:00,58.9,58.0,30.01,East,88,1.0,1.0,96,0.00,,,0.00,weatherlink.com 1.10,2013-07-27 06:47:00,
2013-07-27 03:02:00,58.7,58.0,30.00,ESE,105,1.0,3.0,96,0.00,,,0.00,weatherlink.com 1.10,2013-07-27 07:02:00,
2013-07-27 03:17:00,58.6,58.0,30.00,East,93,1.0,2.0,97,0.00,,,0.00,weatherlink.com 1.10,2013-07-27 07:17:00,
2013-07-27 03:32:00,58.5,57.0,30.00,East,95,0.0,2.0,96,0.00,,,0.00,weatherlink.com 1.10,2013-07-27 07:32:00,
2013-07-27 03:47:00,58.2,57.0,29.99,ESE,105,1.0,3.0,97,0.00,,,0.00,weatherlink.com 1.10,2013-07-27 07:47:00,
2013-07-27 04:02:00,58.0,57.0,30.00,ESE,108,0.0,3.0,97,0.00,,,0.00,weatherlink.com 1.10,2013-07-27 08:02:00,
2013-07-27 04:17:00,57.9,57.0,30.00,ESE,108,0.0,2.0,97,0.00,,,0.00,weatherlink.com 1.10,2013-07-27 08:17:00,
2013-07-27 04:32:00,57.8,57.0,30.00,ESE,108,0.0,1.0,97,0.00,,,0.00,weatherlink.com 1.10,2013-07-27 08:32:00,
2013-07-27 04:47:00,57.6,57.0,30.00,ESE,108,0.0,1.0,97,0.00,,,0.00,weatherlink.com 1.10,2013-07-27 08:47:00,
2013-07-27 05:02:00,57.5,57.0,30.00,ESE,108,0.0,1.0,97,0.00,,,0.00,weatherlink.com 1.10,2013-07-27 09:02:00,
2013-07-27 05:17:00,57.3,57.0,30.00,ESE,108,0.0,0.0,97,0.00,,,0.00,weatherlink.com 1.10,2013-07-27 09:17:00,
2013-07-27 05:32:00,57.1,56.0,30.01,ESE,108,0.0,0.0,97,0.00,,,0.00,weatherlink.com 1.10,2013-07-27 09:32:00,
2013-07-27 05:47:00,56.8,56.0,30.01,ESE,108,0.0,0.0,97,0.00,,,0.00,weatherlink.com 1.10,2013-07-27 09:47:00,
2013-07-27 06:02:00,56.7,56.0,30.01,ESE,108,0.0,0.0,97,0.00,,,0.00,weatherlink.com 1.10,2013-07-27 10:02:00,
2013-07-27 06:17:00,56.6,56.0,30.01,ESE,108,0.0,0.0,97,0.00,,,0.00,weatherlink.com 1.10,2013-07-27 10:17:00,
2013-07-27 06:32:00,56.6,56.0,30.01,ESE,108,0.0,0.0,97,0.00,,,0.00,weatherlink.com 1.10,2013-07-27 10:32:00,
2013-07-27 06:47:00,56.7,56.0,30.01,SW,229,0.0,0.0,97,0.00,,,0.00,weatherlink.com 1.10,2013-07-27 10:47:00,
2013-07-27 07:02:00,56.9,56.0,30.01,West,279,0.0,0.0,97,0.00,,,0.00,weatherlink.com 1.10,2013-07-27 11:02:00,
2013-07-27 07:17:00,57.6,57.0,30.01,West,279,0.0,0.0,98,0.00,,,0.00,weatherlink.com 1.10,2013-07-27 11:17:00,
2013-07-27 07:33:00,58.6,58.0,30.01,West,279,0.0,0.0,98,0.00,,,0.00,weatherlink.com 1.10,2013-07-27 11:33:00,
2013-07-27 07:48:00,59.5,59.0,30.01,West,279,0.0,0.0,98,0.00,,,0.00,weatherlink.com 1.10,2013-07-27 11:48:00,
2013-07-27 08:03:00,60.4,60.0,30.01,SSE,166,0.0,0.0,98,0.00,,,0.00,weatherlink.com 1.10,2013-07-27 12:03:00,
2013-07-27 08:18:00,61.8,61.0,30.01,South,169,0.0,0.0,98,0.00,,,0.00,weatherlink.com 1.10,2013-07-27 12:18:00,
2013-07-27 08:33:00,63.5,63.0,30.01,South,169,0.0,1.0,99,0.00,,,0.00,weatherlink.com 1.10,2013-07-27 12:33:00,
2013-07-27 08:48:00,64.8,64.0,30.01,South,173,0.0,1.0,98,0.00,,,0.00,weatherlink.com 1.10,2013-07-27 12:48:00,
2013-07-27 09:03:00,66.1,66.0,30.01,South,187,1.0,2.0,99,0.00,,,0.00,weatherlink.com 1.10,2013-07-27 13:03:00,
2013-07-27 09:18:00,68.1,67.0,30.01,West,276,1.0,2.0,95,0.00,,,0.00,weatherlink.com 1.10,2013-07-27 13:18:00,
2013-07-27 09:33:00,70.8,67.0,30.01,West,270,1.0,4.0,86,0.00,,,0.00,weatherlink.com 1.10,2013-07-27 13:33:00,
2013-07-27 09:48:00,72.6,67.0,30.01,WNW,284,3.0,4.0,81,0.00,,,0.00,weatherlink.com 1.10,2013-07-27 13:48:00,
2013-07-27 10:03:00,73.9,66.0,30.01,WSW,250,0.0,4.0,77,0.00,,,0.00,weatherlink.com 1.10,2013-07-27 14:03:00,
2013-07-27 10:18:00,75.3,67.0,30.01,NNW,335,0.0,3.0,75,0.00,,,0.00,weatherlink.com 1.10,2013-07-27 14:18:00,
2013-07-27 10:33:00,76.0,67.0,30.01,WSW,248,0.0,3.0,73,0.00,,,0.00,weatherlink.com 1.10,2013-07-27 14:33:00,
2013-07-27 10:48:00,76.9,68.0,30.01,West,261,0.0,2.0,73,0.00,,,0.00,weatherlink.com 1.10,2013-07-27 14:48:00,
2013-07-27 11:03:00,79.0,69.0,30.01,West,267,1.0,3.0,72,0.00,,,0.00,weatherlink.com 1.10,2013-07-27 15:03:00,
2013-07-27 11:18:00,78.9,68.0,30.00,NNW,348,0.0,3.0,70,0.00,,,0.00,weatherlink.com 1.10,2013-07-27 15:18:00,
2013-07-27 11:33:00,79.0,68.0,30.00,SSW,208,1.0,6.0,70,0.00,,,0.00,weatherlink.com 1.10,2013-07-27 15:33:00,
2013-07-27 11:48:00,79.1,67.0,30.01,SSE,163,4.0,7.0,66,0.00,,,0.00,weatherlink.com 1.10,2013-07-27 15:48:00,
2013-07-27 12:03:00,79.5,67.0,30.01,SW,219,0.0,4.0,65,0.00,,,0.00,weatherlink.com 1.10,2013-07-27 16:03:00,
2013-07-27 12:19:00,80.9,68.0,30.00,SW,223,2.0,7.0,64,0.00,,,0.00,weatherlink.com 1.10,2013-07-27 16:19:00,
2013-07-27 12:34:00,82.1,68.0,30.00,South,175,2.0,5.0,62,0.00,,,0.00,weatherlink.com 1.10,2013-07-27 16:34:00,
2013-07-27 12:49:00,82.5,69.0,30.00,WSW,253,5.0,9.0,63,0.00,,,0.00,weatherlink.com 1.10,2013-07-27 16:49:00,
2013-07-27 13:04:00,82.0,68.0,29.99,SSW,196,3.0,8.0,62,0.00,,,0.00,weatherlink.com 1.10,2013-07-27 17:04:00,
2013-07-27 13:19:00,82.5,67.0,29.98,WSW,244,4.0,9.0,59,0.00,,,0.00,weatherlink.com 1.10,2013-07-27 17:19:00,
2013-07-27 13:34:00,82.1,66.0,29.98,WSW,257,3.0,10.0,58,0.00,,,0.00,weatherlink.com 1.10,2013-07-27 17:34:00,
2013-07-27 13:49:00,82.7,67.0,29.98,West,277,3.0,6.0,60,0.00,,,0.00,weatherlink.com 1.10,2013-07-27 17:49:00,
2013-07-27 14:04:00,84.4,67.0,29.97,WSW,240,3.0,7.0,57,0.00,,,0.00,weatherlink.com 1.10,2013-07-27 18:04:00,
2013-07-27 14:19:00,85.1,67.0,29.97,South,169,7.0,8.0,54,0.00,,,0.00,weatherlink.com 1.10,2013-07-27 18:19:00,
2013-07-27 14:34:00,83.4,67.0,29.96,South,176,2.0,5.0,59,0.00,,,0.00,weatherlink.com 1.10,2013-07-27 18:34:00,
2013-07-27 14:49:00,84.5,68.0,29.96,SW,215,0.0,6.0,58,0.00,,,0.00,weatherlink.com 1.10,2013-07-27 18:49:00,
2013-07-27 15:04:00,83.8,67.0,29.95,SSE,153,2.0,4.0,57,0.00,,,0.00,weatherlink.com 1.10,2013-07-27 19:04:00,
2013-07-27 15:19:00,85.8,68.0,29.95,SW,229,4.0,6.0,56,0.00,,,0.00,weatherlink.com 1.10,2013-07-27 19:19:00,
2013-07-27 15:34:00,85.7,68.0,29.94,NE,56,4.0,6.0,56,0.00,,,0.00,weatherlink.com 1.10,2013-07-27 19:34:00,
2013-07-27 15:49:00,84.5,67.0,29.93,ESE,112,1.0,7.0,55,0.00,,,0.00,weatherlink.com 1.10,2013-07-27 19:49:00,
2013-07-27 16:04:00,83.8,67.0,29.93,SSW,212,3.0,7.0,57,0.00,,,0.00,weatherlink.com 1.10,2013-07-27 20:04:00,
2013-07-27 16:19:00,82.7,67.0,29.93,SSE,150,0.0,4.0,59,0.00,,,0.00,weatherlink.com 1.10,2013-07-27 20:19:00,
2013-07-27 16:34:00,82.0,67.0,29.91,ESE,113,2.0,3.0,60,0.00,,,0.00,weatherlink.com 1.10,2013-07-27 20:34:00,
2013-07-27 16:49:00,81.3,67.0,29.91,East,101,0.0,3.0,63,0.00,,,0.00,weatherlink.com 1.10,2013-07-27 20:49:00,
2013-07-27 17:04:00,80.7,67.0,29.91,ENE,72,1.0,7.0,64,0.00,,,0.00,weatherlink.com 1.10,2013-07-27 21:04:00,
2013-07-27 17:19:00,81.2,67.0,29.91,ESE,114,0.0,7.0,63,0.00,,,0.00,weatherlink.com 1.10,2013-07-27 21:19:00,
2013-07-27 17:34:00,81.8,67.0,29.90,ESE,109,2.0,8.0,62,0.00,,,0.00,weatherlink.com 1.10,2013-07-27 21:34:00,
2013-07-27 17:49:00,81.8,65.0,29.90,SE,140,5.0,10.0,58,0.00,,,0.00,weatherlink.com 1.10,2013-07-27 21:49:00,
2013-07-27 18:04:00,81.4,66.0,29.89,ENE,76,1.0,7.0,60,0.00,,,0.00,weatherlink.com 1.10,2013-07-27 22:04:00,
2013-07-27 18:19:00,81.1,65.0,29.89,ENE,60,3.0,7.0,58,0.00,,,0.00,weatherlink.com 1.10,2013-07-27 22:19:00,
2013-07-27 18:34:00,80.6,66.0,29.89,SSE,163,0.0,7.0,61,0.00,,,0.00,weatherlink.com 1.10,2013-07-27 22:34:00,
2013-07-27 18:49:00,80.5,65.0,29.91,South,179,1.0,6.0,59,0.00,,,0.00,weatherlink.com 1.10,2013-07-27 22:49:00,
2013-07-27 19:04:00,80.0,65.0,29.91,NNE,30,2.0,3.0,61,0.00,,,0.00,weatherlink.com 1.10,2013-07-27 23:04:00,
2013-07-27 19:19:00,78.6,65.0,29.91,ENE,69,0.0,5.0,64,0.00,,,0.00,weatherlink.com 1.10,2013-07-27 23:19:00,
2013-07-27 19:34:00,77.6,66.0,29.91,East,98,0.0,1.0,67,0.00,,,0.00,weatherlink.com 1.10,2013-07-27 23:34:00,
2013-07-27 19:49:00,76.3,66.0,29.92,ENE,59,0.0,2.0,70,0.00,,,0.00,weatherlink.com 1.10,2013-07-27 23:49:00,
2013-07-27 20:04:00,75.2,66.0,29.92,NNE,22,0.0,2.0,72,0.00,,,0.00,weatherlink.com 1.10,2013-07-28 00:04:00,
2013-07-27 20:19:00,74.4,65.0,29.92,East,84,3.0,7.0,73,0.00,,,0.00,weatherlink.com 1.10,2013-07-28 00:19:00,
2013-07-27 20:34:00,74.4,65.0,29.93,SE,136,2.0,9.0,73,0.00,,,0.00,weatherlink.com 1.10,2013-07-28 00:34:00,
2013-07-27 20:49:00,74.0,65.0,29.93,ESE,110,1.0,8.0,73,0.00,,,0.00,weatherlink.com 1.10,2013-07-28 00:49:00,
2013-07-27 21:04:00,73.6,64.0,29.93,SSE,156,2.0,12.0,72,0.00,,,0.00,weatherlink.com 1.10,2013-07-28 01:04:00,
2013-07-27 21:19:00,73.2,64.0,29.94,NNE,14,3.0,8.0,72,0.00,,,0.00,weatherlink.com 1.10,2013-07-28 01:19:00,
2013-07-27 21:34:00,72.6,63.0,29.94,SE,131,1.0,9.0,73,0.00,,,0.00,weatherlink.com 1.10,2013-07-28 01:34:00,
2013-07-27 21:49:00,72.2,63.0,29.95,SSE,164,2.0,6.0,73,0.00,,,0.00,weatherlink.com 1.10,2013-07-28 01:49:00,
2013-07-27 22:04:00,71.8,63.0,29.94,ESE,119,2.0,5.0,73,0.00,,,0.00,weatherlink.com 1.10,2013-07-28 02:04:00,
2013-07-27 22:19:00,71.5,62.0,29.94,SW,220,0.0,7.0,73,0.00,,,0.00,weatherlink.com 1.10,2013-07-28 02:19:00,
2013-07-27 22:34:00,71.3,62.0,29.93,ENE,76,1.0,5.0,73,0.00,,,0.00,weatherlink.com 1.10,2013-07-28 02:34:00,
2013-07-27 22:49:00,70.9,62.0,29.93,East,84,3.0,5.0,74,0.00,,,0.00,weatherlink.com 1.10,2013-07-28 02:49:00,
2013-07-27 23:04:00,70.5,62.0,29.92,East,84,2.0,8.0,74,0.00,,,0.00,weatherlink.com 1.10,2013-07-28 03:04:00,
2013-07-27 23:19:00,69.8,62.0,29.92,East,100,0.0,5.0,76,0.00,,,0.00,weatherlink.com 1.10,2013-07-28 03:19:00,
2013-07-27 23:34:00,69.3,63.0,29.91,ENE,63,0.0,1.0,79,0.00,,,0.00,weatherlink.com 1.10,2013-07-28 03:34:00,
2013-07-27 23:49:00,68.8,62.0,29.92,ENE,65,1.0,1.0,78,0.00,,,0.00,weatherlink.com 1.10,2013-07-28 03:49:00,